Regional Weather Roundup
Issued by NWS

Home | Current Version | Previous Version | Graphics & Text | Print | Product List | Glossary On
Versions: 1 2 3 4 5 6 7 8 9 10 11 12 13 14 15 16 17 18 19 20 21 22 23 24 25 26 27 28 29 30 31 32 33 34 35 36 37 38 39 40 41 42 43 44 45 46 47 48 49 50
562
ASUS43 KOAX 260302
RWRNE

WEATHER ROUNDUP FOR NEBRASKA
NATIONAL WEATHER SERVICE OMAHA NE
1000 PM CDT MON SEP 25 2017

NOTES: SATELLITE DATA IS BEING USED TO AUGMENT CLOUD COVER ABOVE
       12000 FEET.
       "FAIR" INDICATES FEW OR NO CLOUDS BELOW 12,000 FEET WITH NO
       SIGNIFICANT WEATHER AND/OR OBSTRUCTIONS TO VISIBILITY.


NEZ001>004-019>022-054>056-260400-
NEBRASKA PANHANDLE

CITY           SKY/WX    TMP DP  RH WIND       PRES   REMARKS
SCOTTSBLUFF    CLOUDY    48  42  80 CALM      30.13R
ALLIANCE       CLEAR     39  37  92 E3        30.11R
CHADRON        CLEAR     42  38  85 SW3       30.11R
GORDON         CLOUDY    47  43  85 SE3       30.12R
KIMBALL        CLOUDY    46  41  85 CALM      30.15S
SIDNEY         CLOUDY    47  40  76 E7        30.13R
$$

NEZ057>060-069>072-079>082-260400-
SOUTHWEST NEBRASKA

CITY           SKY/WX    TMP DP  RH WIND       PRES   REMARKS
NORTH PLATTE   LGT RAIN  49  46  90 NE5       30.10R
IMPERIAL       CLOUDY    48  46  93 N8        30.11R
LEXINGTON      CLOUDY    50  48  92 N8        30.07S
MCCOOK         LGT RAIN  50  49  96 N9        30.08S
OGALLALA       CLOUDY    50  47  88 NE6       30.12R
$$

NEZ005>010-023>029-035>040-094-260400-
NORTH CENTRAL NEBRASKA

CITY           SKY/WX    TMP DP  RH WIND       PRES   REMARKS
VALENTINE      CLOUDY    49  47  93 CALM      30.12R
AINSWORTH      RAIN      47  47 100 N9        30.10S
BROKEN BOW     LGT RAIN  49  48  97 N9        30.07S
O`NEILL        LGT RAIN  49  49 100 N9        30.07R
ORD            LGT RAIN  50  47  89 N8        30.06R
THEDFORD       CLOUDY    47  46  95 N7        30.10S
$$

NEZ041-046>049-061>064-073>077-083>087-260400-
SOUTH CENTRAL NEBRASKA

CITY           SKY/WX    TMP DP  RH WIND       PRES   REMARKS
GRAND ISLAND   LGT RAIN  51  51 100 N10       30.04S FOG
AURORA         CLOUDY    51  51 100 N12       30.02S FOG
HASTINGS       LGT RAIN  52  50  93 N12       30.04R FOG
HEBRON         LGT RAIN  57  56  97 N10       29.99S
HOLDREGE       CLOUDY    50  48  95 N12       30.05S
KEARNEY        LGT RAIN  50  49  96 N13       30.06R
$$

NEZ011>018-030>034-042>045-260400-
NORTHEAST NEBRASKA

CITY           SKY/WX    TMP DP  RH WIND       PRES   REMARKS
NORFOLK        LGT RAIN  52  52 100 N9        30.00F FOG
ALBION         CLOUDY    52  51  96 N7        30.03S
BLAIR          LGT RAIN  58  57  98 N10       29.96S
COLUMBUS       CLOUDY    54  52  93 N5        30.01F
FREMONT        LGT RAIN  56  56  98 N3        29.98F
TEKAMAH        LGT RAIN  57  55  93 N8        29.97F
WAYNE          CLOUDY    54  51  91 N5        30.00F
$$

NEZ050>053-065>068-078-088>093-260400-
SOUTHEAST NEBRASKA

CITY           SKY/WX    TMP DP  RH WIND       PRES   REMARKS
LINCOLN        LGT RAIN  58  56  93 NW8       29.99F
OMAHA EPPLEY   LGT RAIN  60  57  89 N12       29.95F
BEATRICE       LGT RAIN  61  61  99 N7        29.98S
FALLS CITY     LGT RAIN  66  65  96 CALM      29.96R
NEBRASKA CITY  DRIZZLE   65  65 100 W3        29.97R
PLATTSMOUTH    RAIN      63  63 100 NW3       29.96S
$$

NEZ044-045-051>053-067-260400-
OMAHA AREA

CITY           SKY/WX    TMP DP  RH WIND       PRES   REMARKS
OMAHA EPPLEY   LGT RAIN  60  57  89 N12       29.95F
BLAIR          LGT RAIN  58  57  98 N10       29.96S
FREMONT        LGT RAIN  56  56  98 N3        29.98F
MILLARD        HVY RAIN  61  59  94 NW5       29.96S
OFFUTT AFB     LGT RAIN  61  59  93 N5        29.95S
PLATTSMOUTH    RAIN      63  63 100 NW3       29.96S
WAHOO          RAIN      57  56  97 NW3       29.99R
$$




USA.gov is the U.S. government's official web portal to all federal, state and local government web resources and services.